Flag for Brazil Weather past 2 weeks in Campinas, São Paulo, Brazil

Now
73 °F

Clear.


Feels Like: 76 °F
Forecast: 64 / 82 °F
Wind: 3 mph from Southeast

Location: Campinas Aeroporto


UV Index: 5 (Moderate)

Visibility: 6 mi


Pressure: 30.09 "Hg

Humidity: 69%

Dew point: 63 °F

Location of CampinasLocation

Historic Weather in Campinas

°F

Campinas temperature yesterday

Maximum temperature yesterday: 84 °F (at 3:00 PM)
Minimum temperature yesterday: 64 °F (at 3:00 AM)
Average temperature yesterday: 73 °F

Past Weeks' High & Low Weather Summary

 TemperatureHumidityPressure
High90 °F (Apr 8, 3:00 PM)100% (Apr 12, 9:00 PM)30.21 "Hg (Apr 12, 9:00 PM)
Low63 °F (Apr 15, 8:00 AM)25% (Apr 7, 4:00 PM)29.86 "Hg (Apr 9, 4:00 PM)
Average74 °F69%30.04 "Hg
* Reported Apr 4 8:00 AM — Apr 19 8:00 AM, Campinas, Weather by CustomWeather, © 2014

Note: Actual official high and low records may vary slightly from our data, if they occured in-between our weather recording intervals... More about our weather records

Advertising

Historic Weather Conditions — Data for Previous 24 hours

 ConditionsComfort  
Time TempWeatherWind HumidityBarometerVisibility
8:00 AM
Apr 19
68 °FClear.7 mph83%30.07 "Hg6 mi
7:00 AM64 °FClear.6 mph88%30.07 "Hg5 mi
6:00 AM64 °FSunny.7 mph88%30.04 "Hg10 mi
5:00 AM66 °FClear.10 mph83%30.01 "Hg10 mi
4:00 AM64 °FClear.8 mph88%30.01 "Hg10 mi
3:00 AM66 °FClear.10 mph83%29.98 "Hg10 mi
2:00 AM66 °FClear.9 mph78%30.01 "Hg10 mi
1:00 AM68 °FClear.8 mph73%30.01 "Hg10 mi
12:00 AM68 °FClear.8 mph73%30.01 "Hg10 mi
11:00 PM
Apr 18
68 °FClear.8 mph78%30.04 "Hg10 mi
10:00 PM70 °FClear.6 mph73%30.04 "Hg10 mi
9:00 PM70 °FClear.7 mph73%30.04 "Hg10 mi
8:00 PM75 °FClear.7 mph57%30.01 "Hg10 mi
7:00 PM77 °FClear.7 mph54%30.01 "Hg10 mi
6:00 PM81 °FClear.7 mph45%29.98 "Hg10 mi
5:00 PM82 °FClear.8 mph42%29.98 "Hg10 mi
4:00 PM82 °FPassing clouds.9 mph40%29.98 "HgN/A
3:00 PM84 °FScattered clouds.7 mph40%29.95 "HgN/A
2:00 PM82 °FScattered clouds.8 mph42%29.98 "HgN/A
1:00 PM82 °FScattered clouds.8 mph42%29.98 "HgN/A
12:00 PM81 °FPassing clouds.6 mph48%30.01 "HgN/A
11:00 AM77 °FSunny.8 mph61%30.04 "Hg10 mi
10:00 AM75 °FSunny.8 mph65%30.04 "Hg10 mi
9:00 AM72 °FSunny.6 mph78%30.04 "Hg10 mi
Weather by CustomWeather, © 2014

See weather overview